Year,Month,Day,Hour,Minute,Value (Times are PST for temperature in C)
2017,08,22,00,00,20.40
2017,08,22,00,01,20.30
2017,08,22,00,02,20.30
2017,08,22,00,03,20.30
2017,08,22,00,04,20.30
2017,08,22,00,05,20.30
2017,08,22,00,06,20.30
2017,08,22,00,07,20.30
2017,08,22,00,08,20.30
2017,08,22,00,09,20.30
2017,08,22,00,10,20.20
2017,08,22,00,11,20.20
2017,08,22,00,12,20.20
2017,08,22,00,13,20.20
2017,08,22,00,14,20.20
2017,08,22,00,15,20.20
2017,08,22,00,16,20.20
2017,08,22,00,17,20.20
2017,08,22,00,18,20.20
2017,08,22,00,19,20.20
2017,08,22,00,20,20.20
2017,08,22,00,21,20.20
2017,08,22,00,22,20.20
2017,08,22,00,23,20.20
2017,08,22,00,24,20.20
2017,08,22,00,25,20.20
2017,08,22,00,26,20.20
2017,08,22,00,27,20.20
2017,08,22,00,28,20.20
2017,08,22,00,29,20.10
2017,08,22,00,30,20.10
2017,08,22,00,31,20.10
2017,08,22,00,32,20.10
2017,08,22,00,33,20.10
2017,08,22,00,34,20.10
2017,08,22,00,35,20.10
2017,08,22,00,36,20.10
2017,08,22,00,37,20.10
2017,08,22,00,38,20.10
2017,08,22,00,39,20.10
2017,08,22,00,40,20.10
2017,08,22,00,41,20.10
2017,08,22,00,42,20.10
2017,08,22,00,43,20.10
2017,08,22,00,44,20.10
2017,08,22,00,45,20.10
2017,08,22,00,46,20.00
2017,08,22,00,47,20.00
2017,08,22,00,48,20.00
2017,08,22,00,49,20.00
2017,08,22,00,50,20.00
2017,08,22,00,51,19.90
2017,08,22,00,52,19.90
2017,08,22,00,53,19.90
2017,08,22,00,54,19.90
2017,08,22,00,55,19.90
2017,08,22,00,56,19.90
2017,08,22,00,57,19.90
2017,08,22,00,58,19.80
2017,08,22,00,59,19.80
2017,08,22,01,00,19.80
2017,08,22,01,01,19.80
2017,08,22,01,02,19.80
2017,08,22,01,03,19.80
2017,08,22,01,04,19.70
2017,08,22,01,05,19.70
2017,08,22,01,06,19.60
2017,08,22,01,07,19.60
2017,08,22,01,08,19.60
2017,08,22,01,09,19.50
2017,08,22,01,10,19.50
2017,08,22,01,11,19.50
2017,08,22,01,12,19.50
2017,08,22,01,13,19.40
2017,08,22,01,14,19.40
2017,08,22,01,15,19.40
2017,08,22,01,16,19.40
2017,08,22,01,17,19.40
2017,08,22,01,18,19.40
2017,08,22,01,19,19.40
2017,08,22,01,20,19.30
2017,08,22,01,21,19.30
2017,08,22,01,22,19.30
2017,08,22,01,23,19.30
2017,08,22,01,24,19.30
2017,08,22,01,25,19.30
2017,08,22,01,26,19.30
2017,08,22,01,27,19.20
2017,08,22,01,28,19.20
2017,08,22,01,29,19.20
2017,08,22,01,30,19.20
2017,08,22,01,31,19.20
2017,08,22,01,32,19.20
2017,08,22,01,33,19.30
2017,08,22,01,34,19.30
2017,08,22,01,35,19.30
2017,08,22,01,36,19.30
2017,08,22,01,37,19.30
2017,08,22,01,38,19.30
2017,08,22,01,39,19.30
2017,08,22,01,40,19.30
2017,08,22,01,41,19.30
2017,08,22,01,42,19.30
2017,08,22,01,43,19.30
2017,08,22,01,44,19.30
2017,08,22,01,45,19.30
2017,08,22,01,46,19.30
2017,08,22,01,47,19.30
2017,08,22,01,48,19.30
2017,08,22,01,49,19.30
2017,08,22,01,50,19.30
2017,08,22,01,51,19.30
2017,08,22,01,52,19.30
2017,08,22,01,53,19.30
2017,08,22,01,54,19.20
2017,08,22,01,55,19.20
2017,08,22,01,56,19.20
2017,08,22,01,57,19.20
2017,08,22,01,58,19.20
2017,08,22,01,59,19.20
2017,08,22,02,00,19.20
2017,08,22,02,01,19.20
2017,08,22,02,02,19.20
2017,08,22,02,03,19.20
2017,08,22,02,04,19.20
2017,08,22,02,05,19.20
2017,08,22,02,06,19.20
2017,08,22,02,07,19.20
2017,08,22,02,08,19.20
2017,08,22,02,09,19.20
2017,08,22,02,10,19.20
2017,08,22,02,11,19.20
2017,08,22,02,12,19.20
2017,08,22,02,13,19.20
2017,08,22,02,14,19.20
2017,08,22,02,15,19.20
2017,08,22,02,16,19.10
2017,08,22,02,17,19.10
2017,08,22,02,18,19.10
2017,08,22,02,19,19.10
2017,08,22,02,20,19.10
2017,08,22,02,21,19.10
2017,08,22,02,22,19.10
2017,08,22,02,23,19.10
2017,08,22,02,24,19.10
2017,08,22,02,25,19.10
2017,08,22,02,26,19.10
2017,08,22,02,27,19.10
2017,08,22,02,28,19.10
2017,08,22,02,29,19.10
2017,08,22,02,30,19.10
2017,08,22,02,31,19.10
2017,08,22,02,32,19.10
2017,08,22,02,33,19.10
2017,08,22,02,34,19.10
2017,08,22,02,35,19.10
2017,08,22,02,36,19.10
2017,08,22,02,37,19.10
2017,08,22,02,38,19.00
2017,08,22,02,39,19.00
2017,08,22,02,40,19.00
2017,08,22,02,41,19.00
2017,08,22,02,42,19.00
2017,08,22,02,43,19.00
2017,08,22,02,44,19.00
2017,08,22,02,45,19.00
2017,08,22,02,46,19.00
2017,08,22,02,47,18.90
2017,08,22,02,48,18.90
2017,08,22,02,49,18.90
2017,08,22,02,50,18.90
2017,08,22,02,51,18.90
2017,08,22,02,52,18.90
2017,08,22,02,53,18.90
2017,08,22,02,54,18.90
2017,08,22,02,55,18.90
2017,08,22,02,56,18.90
2017,08,22,02,57,18.90
2017,08,22,02,58,18.90
2017,08,22,02,59,18.80
2017,08,22,03,00,18.80
2017,08,22,03,01,18.80
2017,08,22,03,02,18.80
2017,08,22,03,03,18.80
2017,08,22,03,04,18.80
2017,08,22,03,05,18.80
2017,08,22,03,06,18.80
2017,08,22,03,07,18.80
2017,08,22,03,08,18.80
2017,08,22,03,09,18.80
2017,08,22,03,10,18.70
2017,08,22,03,11,18.80
2017,08,22,03,12,18.70
2017,08,22,03,13,18.70
2017,08,22,03,14,18.70
2017,08,22,03,15,18.70
2017,08,22,03,16,18.70
2017,08,22,03,17,18.70
2017,08,22,03,18,18.70
2017,08,22,03,19,18.70
2017,08,22,03,20,18.70
2017,08,22,03,21,18.70
2017,08,22,03,22,18.70
2017,08,22,03,23,18.70
2017,08,22,03,24,18.70
2017,08,22,03,25,18.60
2017,08,22,03,26,18.60
2017,08,22,03,27,18.60
2017,08,22,03,28,18.60
2017,08,22,03,29,18.60
2017,08,22,03,30,18.60
2017,08,22,03,31,18.60
2017,08,22,03,32,18.60
2017,08,22,03,33,18.60
2017,08,22,03,34,18.60
2017,08,22,03,35,18.50
2017,08,22,03,36,18.50
2017,08,22,03,37,18.50
2017,08,22,03,38,18.50
2017,08,22,03,39,18.40
2017,08,22,03,40,18.40
2017,08,22,03,41,18.40
2017,08,22,03,42,18.40
2017,08,22,03,43,18.30
2017,08,22,03,44,18.30
2017,08,22,03,45,18.30
2017,08,22,03,46,18.30
2017,08,22,03,47,18.20
2017,08,22,03,48,18.20
2017,08,22,03,49,18.20
2017,08,22,03,50,18.20
2017,08,22,03,51,18.20
2017,08,22,03,52,18.20
2017,08,22,03,53,18.20
2017,08,22,03,54,18.20
2017,08,22,03,55,18.10
2017,08,22,03,56,18.10
2017,08,22,03,57,18.10
2017,08,22,03,58,18.10
2017,08,22,03,59,18.10
2017,08,22,04,00,18.00
2017,08,22,04,01,18.00
2017,08,22,04,02,18.00
2017,08,22,04,03,18.00
2017,08,22,04,04,18.00
2017,08,22,04,05,18.00
2017,08,22,04,06,18.00
2017,08,22,04,07,18.00
2017,08,22,04,08,17.90
2017,08,22,04,09,17.90
2017,08,22,04,10,17.90
2017,08,22,04,11,17.90
2017,08,22,04,12,17.90
2017,08,22,04,13,17.90
2017,08,22,04,14,17.90
2017,08,22,04,15,17.80
2017,08,22,04,16,17.80
2017,08,22,04,17,17.80
2017,08,22,04,18,17.80
2017,08,22,04,19,17.80
2017,08,22,04,20,17.80
2017,08,22,04,21,17.80
2017,08,22,04,22,17.80
2017,08,22,04,23,17.80
2017,08,22,04,24,17.80
2017,08,22,04,25,17.80
2017,08,22,04,26,17.70
2017,08,22,04,27,17.70
2017,08,22,04,28,17.70
2017,08,22,04,29,17.60
2017,08,22,04,30,17.60
2017,08,22,04,31,17.60
2017,08,22,04,32,17.50
2017,08,22,04,33,17.50
2017,08,22,04,34,17.50
2017,08,22,04,35,17.40
2017,08,22,04,36,17.40
2017,08,22,04,37,17.40
2017,08,22,04,38,17.40
2017,08,22,04,39,17.40
2017,08,22,04,40,17.40
2017,08,22,04,41,17.40
2017,08,22,04,42,17.40
2017,08,22,04,43,17.40
2017,08,22,04,44,17.40
2017,08,22,04,45,17.40
2017,08,22,04,46,17.40
2017,08,22,04,47,17.40
2017,08,22,04,48,17.40
2017,08,22,04,49,17.40
2017,08,22,04,50,17.40
2017,08,22,04,51,17.40
2017,08,22,04,52,17.40
2017,08,22,04,53,17.30
2017,08,22,04,54,17.30
2017,08,22,04,55,17.30
2017,08,22,04,56,17.30
2017,08,22,04,57,17.30
2017,08,22,04,58,17.30
2017,08,22,04,59,17.30
2017,08,22,05,00,17.30
2017,08,22,05,01,17.20
2017,08,22,05,02,17.20
2017,08,22,05,03,17.20
2017,08,22,05,04,17.20
2017,08,22,05,05,17.20
2017,08,22,05,06,17.20
2017,08,22,05,07,17.10
2017,08,22,05,08,17.10
2017,08,22,05,09,17.10
2017,08,22,05,10,17.10
2017,08,22,05,11,17.10
2017,08,22,05,12,17.10
2017,08,22,05,13,17.10
2017,08,22,05,14,17.10
2017,08,22,05,15,17.10
2017,08,22,05,16,17.10
2017,08,22,05,17,17.10
2017,08,22,05,18,17.10
2017,08,22,05,19,17.10
2017,08,22,05,20,17.00
2017,08,22,05,21,17.00
2017,08,22,05,22,17.00
2017,08,22,05,23,17.00
2017,08,22,05,24,16.90
2017,08,22,05,25,16.90
2017,08,22,05,26,16.90
2017,08,22,05,27,16.90
2017,08,22,05,28,16.90
2017,08,22,05,29,16.90
2017,08,22,05,30,16.80
2017,08,22,05,31,16.80
2017,08,22,05,32,16.80
2017,08,22,05,33,16.80
2017,08,22,05,34,16.70
2017,08,22,05,35,16.70
2017,08,22,05,36,16.70
2017,08,22,05,37,16.70
2017,08,22,05,38,16.70
2017,08,22,05,39,16.70
2017,08,22,05,40,16.70
2017,08,22,05,41,16.80
2017,08,22,05,42,16.80
2017,08,22,05,43,16.80
2017,08,22,05,44,16.80
2017,08,22,05,45,16.80
2017,08,22,05,46,16.80
2017,08,22,05,47,16.80
2017,08,22,05,48,16.80
2017,08,22,05,49,16.80
2017,08,22,05,50,16.80
2017,08,22,05,51,16.80
2017,08,22,05,52,16.80
2017,08,22,05,53,16.80
2017,08,22,05,54,16.80
2017,08,22,05,55,16.80
2017,08,22,05,56,16.80
2017,08,22,05,57,16.80
2017,08,22,05,58,16.80
2017,08,22,05,59,16.80
2017,08,22,06,00,16.80
2017,08,22,06,01,16.80
2017,08,22,06,02,16.80
2017,08,22,06,03,16.80
2017,08,22,06,04,16.80
2017,08,22,06,05,16.80
2017,08,22,06,06,16.70
2017,08,22,06,07,16.70
2017,08,22,06,08,16.70
2017,08,22,06,09,16.70
2017,08,22,06,10,16.70
2017,08,22,06,11,16.60
2017,08,22,06,12,16.60
2017,08,22,06,13,16.60
2017,08,22,06,14,16.60
2017,08,22,06,15,16.60
2017,08,22,06,16,16.50
2017,08,22,06,17,16.50
2017,08,22,06,18,16.50
2017,08,22,06,19,16.50
2017,08,22,06,20,16.40
2017,08,22,06,21,16.40
2017,08,22,06,22,16.40
2017,08,22,06,23,16.40
2017,08,22,06,24,16.30
2017,08,22,06,25,16.30
2017,08,22,06,26,16.30
2017,08,22,06,27,16.30
2017,08,22,06,28,16.30
2017,08,22,06,29,16.40
2017,08,22,06,30,16.40
2017,08,22,06,31,16.50
2017,08,22,06,32,16.50
2017,08,22,06,33,16.50
2017,08,22,06,34,16.60
2017,08,22,06,35,16.60
2017,08,22,06,36,16.60
2017,08,22,06,37,16.60
2017,08,22,06,38,16.60
2017,08,22,06,39,16.60
2017,08,22,06,40,16.60
2017,08,22,06,41,16.60
2017,08,22,06,42,16.60
2017,08,22,06,43,16.70
2017,08,22,06,44,16.70
2017,08,22,06,45,16.70
2017,08,22,06,46,16.70
2017,08,22,06,47,16.70
2017,08,22,06,48,16.70
2017,08,22,06,49,16.80
2017,08,22,06,50,16.70
2017,08,22,06,51,16.70
2017,08,22,06,52,16.70
2017,08,22,06,53,16.70
2017,08,22,06,54,16.70
2017,08,22,06,55,16.70
2017,08,22,06,56,16.70
2017,08,22,06,57,16.70
2017,08,22,06,58,16.70
2017,08,22,06,59,16.70
2017,08,22,07,00,16.70
2017,08,22,07,01,16.60
2017,08,22,07,02,16.60
2017,08,22,07,03,16.60
2017,08,22,07,04,16.60
2017,08,22,07,05,16.60
2017,08,22,07,06,16.60
2017,08,22,07,07,16.60
2017,08,22,07,08,16.60
2017,08,22,07,09,16.60
2017,08,22,07,10,16.60
2017,08,22,07,11,16.70
2017,08,22,07,12,16.70
2017,08,22,07,13,16.70
2017,08,22,07,14,16.80
2017,08,22,07,15,16.80
2017,08,22,07,16,16.90
2017,08,22,07,17,16.90
2017,08,22,07,18,16.90
2017,08,22,07,19,16.90
2017,08,22,07,20,16.90
2017,08,22,07,21,16.90
2017,08,22,07,22,16.90
2017,08,22,07,23,16.90
2017,08,22,07,24,16.90
2017,08,22,07,25,16.90
2017,08,22,07,26,16.90
2017,08,22,07,27,16.90
2017,08,22,07,28,16.90
2017,08,22,07,29,16.90
2017,08,22,07,30,16.90
2017,08,22,07,31,16.90
2017,08,22,07,32,16.90
2017,08,22,07,33,16.90
2017,08,22,07,34,16.90
2017,08,22,07,35,16.90
2017,08,22,07,36,16.90
2017,08,22,07,37,16.90
2017,08,22,07,38,16.90
2017,08,22,07,39,16.90
2017,08,22,07,40,16.90
2017,08,22,07,41,16.90
2017,08,22,07,42,16.90
2017,08,22,07,43,17.00
2017,08,22,07,44,17.00
2017,08,22,07,45,17.00
2017,08,22,07,46,17.00
2017,08,22,07,47,17.10
2017,08,22,07,48,17.10
2017,08,22,07,49,17.10
2017,08,22,07,50,17.10
2017,08,22,07,51,17.10
2017,08,22,07,52,17.10
2017,08,22,07,53,17.10
2017,08,22,07,54,17.10
2017,08,22,07,55,17.20
2017,08,22,07,56,17.20
2017,08,22,07,57,17.20
2017,08,22,07,58,17.30
2017,08,22,07,59,17.30
2017,08,22,08,00,17.30
2017,08,22,08,01,17.30
2017,08,22,08,02,17.40
2017,08,22,08,03,17.40
2017,08,22,08,04,17.40
2017,08,22,08,05,17.40
2017,08,22,08,06,17.50
2017,08,22,08,07,17.50
2017,08,22,08,08,17.50
2017,08,22,08,09,17.60
2017,08,22,08,10,17.60
2017,08,22,08,11,17.70
2017,08,22,08,12,17.70
2017,08,22,08,13,17.70
2017,08,22,08,14,17.80
2017,08,22,08,15,17.80
2017,08,22,08,16,17.90
2017,08,22,08,17,17.90
2017,08,22,08,18,18.00
2017,08,22,08,19,18.00
2017,08,22,08,20,18.10
2017,08,22,08,21,18.20
2017,08,22,08,22,18.20
2017,08,22,08,23,18.30
2017,08,22,08,24,18.40
2017,08,22,08,25,18.50
2017,08,22,08,26,18.60
2017,08,22,08,27,18.70
2017,08,22,08,28,18.80
2017,08,22,08,29,18.90
2017,08,22,08,30,19.10
2017,08,22,08,31,19.20
2017,08,22,08,32,19.30
2017,08,22,08,33,19.50
2017,08,22,08,34,19.60
2017,08,22,08,35,19.70
2017,08,22,08,36,19.80
2017,08,22,08,37,19.90
2017,08,22,08,38,19.90
2017,08,22,08,39,20.00
2017,08,22,08,40,20.00
2017,08,22,08,41,20.10
2017,08,22,08,42,20.10
2017,08,22,08,43,20.10
2017,08,22,08,44,20.20
2017,08,22,08,45,20.20
2017,08,22,08,46,20.20
2017,08,22,08,47,20.20
2017,08,22,08,48,20.20
2017,08,22,08,49,20.20
2017,08,22,08,50,20.20
2017,08,22,08,51,20.30
2017,08,22,08,52,20.30
2017,08,22,08,53,20.40
2017,08,22,08,54,20.50
2017,08,22,08,55,20.60
2017,08,22,08,56,20.60
2017,08,22,08,57,20.70
2017,08,22,08,58,20.70
2017,08,22,08,59,20.80
2017,08,22,09,00,20.90
2017,08,22,09,01,20.90
2017,08,22,09,02,21.00
2017,08,22,09,03,21.10
2017,08,22,09,04,21.20
2017,08,22,09,05,21.30
2017,08,22,09,06,21.30
2017,08,22,09,07,21.40
2017,08,22,09,08,21.50
2017,08,22,09,09,21.50
2017,08,22,09,10,21.60
2017,08,22,09,11,21.70
2017,08,22,09,12,21.70
2017,08,22,09,13,21.80
2017,08,22,09,14,21.80
2017,08,22,09,15,21.80
2017,08,22,09,16,21.80
2017,08,22,09,17,21.80
2017,08,22,09,18,21.90
2017,08,22,09,19,22.00
2017,08,22,09,20,22.00
2017,08,22,09,21,22.10
2017,08,22,09,22,22.20
2017,08,22,09,23,22.20
2017,08,22,09,24,22.30
2017,08,22,09,25,22.40
2017,08,22,09,26,22.50
2017,08,22,09,27,22.60
2017,08,22,09,28,22.70
2017,08,22,09,29,22.70
2017,08,22,09,30,22.70
2017,08,22,09,31,22.70
2017,08,22,09,32,22.70
2017,08,22,09,33,22.60
2017,08,22,09,34,22.40
2017,08,22,09,35,22.30
2017,08,22,09,36,22.20
2017,08,22,09,37,22.00
2017,08,22,09,38,21.90
2017,08,22,09,39,21.80
2017,08,22,09,40,21.60
2017,08,22,09,41,21.50
2017,08,22,09,42,21.50
2017,08,22,09,43,21.40
2017,08,22,09,44,21.50
2017,08,22,09,45,21.50
2017,08,22,09,46,21.50
2017,08,22,09,47,21.50
2017,08,22,09,48,21.50
2017,08,22,09,49,21.60
2017,08,22,09,50,21.60
2017,08,22,09,51,21.60
2017,08,22,09,52,21.60
2017,08,22,09,53,21.60
2017,08,22,09,54,21.50
2017,08,22,09,55,21.50
2017,08,22,09,56,21.40
2017,08,22,09,57,21.40
2017,08,22,09,58,21.30
2017,08,22,09,59,21.30
2017,08,22,10,00,21.20
2017,08,22,10,01,21.20
2017,08,22,10,02,21.20
2017,08,22,10,03,21.20
2017,08,22,10,04,21.20
2017,08,22,10,05,21.30
2017,08,22,10,06,21.30
2017,08,22,10,07,21.40
2017,08,22,10,08,21.50
2017,08,22,10,09,21.60
2017,08,22,10,10,21.60
2017,08,22,10,11,21.70
2017,08,22,10,12,21.80
2017,08,22,10,13,21.90
2017,08,22,10,14,21.90
2017,08,22,10,15,21.90
2017,08,22,10,16,21.90
2017,08,22,10,17,22.00
2017,08,22,10,18,22.00
2017,08,22,10,19,22.00
2017,08,22,10,20,22.00
2017,08,22,10,21,22.00
2017,08,22,10,22,22.10
2017,08,22,10,23,22.10
2017,08,22,10,24,22.10
2017,08,22,10,25,22.00
2017,08,22,10,26,21.90
2017,08,22,10,27,21.80
2017,08,22,10,28,21.70
2017,08,22,10,29,21.60
2017,08,22,10,30,21.60
2017,08,22,10,31,21.60
2017,08,22,10,32,21.70
2017,08,22,10,33,21.70
2017,08,22,10,34,21.80
2017,08,22,10,35,21.90
2017,08,22,10,36,21.90
2017,08,22,10,37,21.90
2017,08,22,10,38,21.90
2017,08,22,10,39,21.90
2017,08,22,10,40,21.90
2017,08,22,10,41,21.90
2017,08,22,10,42,21.90
2017,08,22,10,43,22.00
2017,08,22,10,44,22.00
2017,08,22,10,45,22.10
2017,08,22,10,46,22.20
2017,08,22,10,47,22.20
2017,08,22,10,48,22.20
2017,08,22,10,49,22.20
2017,08,22,10,50,22.20
2017,08,22,10,51,22.10
2017,08,22,10,52,22.10
2017,08,22,10,53,22.10
2017,08,22,10,54,22.10
2017,08,22,10,55,22.10
2017,08,22,10,56,22.10
2017,08,22,10,57,22.10
2017,08,22,10,58,22.10
2017,08,22,10,59,22.10
2017,08,22,11,00,22.10
2017,08,22,11,01,22.20
2017,08,22,11,02,22.30
2017,08,22,11,03,22.40
2017,08,22,11,04,22.50
2017,08,22,11,05,22.50
2017,08,22,11,06,22.60
2017,08,22,11,07,22.60
2017,08,22,11,08,22.70
2017,08,22,11,09,22.70
2017,08,22,11,10,22.70
2017,08,22,11,11,22.70
2017,08,22,11,12,22.70
2017,08,22,11,13,22.70
2017,08,22,11,14,22.80
2017,08,22,11,15,22.80
2017,08,22,11,16,22.90
2017,08,22,11,17,22.90
2017,08,22,11,18,23.00
2017,08,22,11,19,23.10
2017,08,22,11,20,23.10
2017,08,22,11,21,23.30
2017,08,22,11,22,23.30
2017,08,22,11,23,23.40
2017,08,22,11,24,23.50
2017,08,22,11,25,23.60
2017,08,22,11,26,23.80
2017,08,22,11,27,23.90
2017,08,22,11,28,24.00
2017,08,22,11,29,24.00
2017,08,22,11,30,24.10
2017,08,22,11,31,24.00
2017,08,22,11,32,24.00
2017,08,22,11,33,23.90
2017,08,22,11,34,23.80
2017,08,22,11,35,23.80
2017,08,22,11,36,23.70
2017,08,22,11,37,23.70
2017,08,22,11,38,23.60
2017,08,22,11,39,23.60
2017,08,22,11,40,23.60
2017,08,22,11,41,23.60
2017,08,22,11,42,23.60
2017,08,22,11,43,23.50
2017,08,22,11,44,23.50
2017,08,22,11,45,23.40
2017,08,22,11,46,23.40
2017,08,22,11,47,23.40
2017,08,22,11,48,23.40
2017,08,22,11,49,23.40
2017,08,22,11,50,23.40
2017,08,22,11,51,23.50
2017,08,22,11,52,23.60
2017,08,22,11,53,23.80
2017,08,22,11,54,24.00
2017,08,22,11,55,24.20
2017,08,22,11,56,24.30
2017,08,22,11,57,24.30
2017,08,22,11,58,24.30
2017,08,22,11,59,24.40
2017,08,22,12,00,24.50
2017,08,22,12,01,24.60
2017,08,22,12,02,24.60
2017,08,22,12,03,24.70
2017,08,22,12,04,24.60
2017,08,22,12,05,24.70
2017,08,22,12,06,24.70
2017,08,22,12,07,24.70
2017,08,22,12,08,24.70
2017,08,22,12,09,24.70
2017,08,22,12,10,24.70
2017,08,22,12,11,24.70
2017,08,22,12,12,24.70
2017,08,22,12,13,24.70
2017,08,22,12,14,24.70
2017,08,22,12,15,24.70
2017,08,22,12,16,24.70
2017,08,22,12,17,24.70
2017,08,22,12,18,24.80
2017,08,22,12,19,24.80
2017,08,22,12,20,24.80
2017,08,22,12,21,24.80
2017,08,22,12,22,24.80
2017,08,22,12,23,24.90
2017,08,22,12,24,24.90
2017,08,22,12,25,24.90
2017,08,22,12,26,24.90
2017,08,22,12,27,25.00
2017,08,22,12,28,25.00
2017,08,22,12,29,25.00
2017,08,22,12,30,25.10
2017,08,22,12,31,25.10
2017,08,22,12,32,25.10
2017,08,22,12,33,25.10
2017,08,22,12,34,25.10
2017,08,22,12,35,25.10
2017,08,22,12,36,25.10
2017,08,22,12,37,25.00
2017,08,22,12,38,25.00
2017,08,22,12,39,25.10
2017,08,22,12,40,25.00
2017,08,22,12,41,24.90
2017,08,22,12,42,24.80
2017,08,22,12,43,24.80
2017,08,22,12,44,24.70
2017,08,22,12,45,24.70
2017,08,22,12,46,24.60
2017,08,22,12,47,24.50
2017,08,22,12,48,24.40
2017,08,22,12,49,24.40
2017,08,22,12,50,24.30
2017,08,22,12,51,24.30
2017,08,22,12,52,24.30
2017,08,22,12,53,24.30
2017,08,22,12,54,24.30
2017,08,22,12,55,24.30
2017,08,22,12,56,24.30
2017,08,22,12,57,24.30
2017,08,22,12,58,24.40
2017,08,22,12,59,24.50
2017,08,22,13,00,24.60
2017,08,22,13,01,24.60
2017,08,22,13,02,24.70
2017,08,22,13,03,24.70
2017,08,22,13,04,24.80
2017,08,22,13,05,24.90
2017,08,22,13,06,24.90
2017,08,22,13,07,25.00
2017,08,22,13,08,25.10
2017,08,22,13,09,25.10
2017,08,22,13,10,25.20
2017,08,22,13,11,25.20
2017,08,22,13,12,25.30
2017,08,22,13,13,25.30
2017,08,22,13,14,25.40
2017,08,22,13,15,25.40
2017,08,22,13,16,25.40
2017,08,22,13,17,25.30
2017,08,22,13,18,25.30
2017,08,22,13,19,25.30
2017,08,22,13,20,25.20
2017,08,22,13,21,25.20
2017,08,22,13,22,25.20
2017,08,22,13,23,25.30
2017,08,22,13,24,25.40
2017,08,22,13,25,25.50
2017,08,22,13,26,25.60
2017,08,22,13,27,25.60
2017,08,22,13,28,25.70
2017,08,22,13,29,25.70
2017,08,22,13,30,25.70
2017,08,22,13,31,25.70
2017,08,22,13,32,25.80
2017,08,22,13,33,25.80
2017,08,22,13,34,25.90
2017,08,22,13,35,26.00
2017,08,22,13,36,26.00
2017,08,22,13,37,26.10
2017,08,22,13,38,26.20
2017,08,22,13,39,26.20
2017,08,22,13,40,26.20
2017,08,22,13,41,26.20
2017,08,22,13,42,26.20
2017,08,22,13,43,26.20
2017,08,22,13,44,26.20
2017,08,22,13,45,26.00
2017,08,22,13,46,25.90
2017,08,22,13,47,25.60
2017,08,22,13,48,25.30
2017,08,22,13,49,25.00
2017,08,22,13,50,24.70
2017,08,22,13,51,24.50
2017,08,22,13,52,24.40
2017,08,22,13,53,24.40
2017,08,22,13,54,24.40
2017,08,22,13,55,24.50
2017,08,22,13,56,24.60
2017,08,22,13,57,24.80
2017,08,22,13,58,25.00
2017,08,22,13,59,25.10
2017,08,22,14,00,25.30
2017,08,22,14,01,25.30
2017,08,22,14,02,25.40
2017,08,22,14,03,25.40
2017,08,22,14,04,25.40
2017,08,22,14,05,25.50
2017,08,22,14,06,25.50
2017,08,22,14,07,25.50
2017,08,22,14,08,25.50
2017,08,22,14,09,25.60
2017,08,22,14,10,25.70
2017,08,22,14,11,25.90
2017,08,22,14,12,26.00
2017,08,22,14,13,26.10
2017,08,22,14,14,26.30
2017,08,22,14,15,26.40
2017,08,22,14,16,26.50
2017,08,22,14,17,26.50
2017,08,22,14,18,26.40
2017,08,22,14,19,26.40
2017,08,22,14,20,26.50
2017,08,22,14,21,26.50
2017,08,22,14,22,26.30
2017,08,22,14,23,26.20
2017,08,22,14,24,26.00
2017,08,22,14,25,25.80
2017,08,22,14,26,25.70
2017,08,22,14,27,25.60
2017,08,22,14,28,25.50
2017,08,22,14,29,25.40
2017,08,22,14,30,25.30
2017,08,22,14,31,25.30
2017,08,22,14,32,25.20
2017,08,22,14,33,25.20
2017,08,22,14,34,25.10
2017,08,22,14,35,25.10
2017,08,22,14,36,25.10
2017,08,22,14,37,25.20
2017,08,22,14,38,25.20
2017,08,22,14,39,25.30
2017,08,22,14,40,25.30
2017,08,22,14,41,25.40
2017,08,22,14,42,25.50
2017,08,22,14,43,25.60
2017,08,22,14,44,25.70
2017,08,22,14,45,25.80
2017,08,22,14,46,25.80
2017,08,22,14,47,25.90
2017,08,22,14,48,25.90
2017,08,22,14,49,26.00
2017,08,22,14,50,26.10
2017,08,22,14,51,26.00
2017,08,22,14,52,25.90
2017,08,22,14,53,25.90
2017,08,22,14,54,25.80
2017,08,22,14,55,25.70
2017,08,22,14,56,25.70
2017,08,22,14,57,25.70
2017,08,22,14,58,25.60
2017,08,22,14,59,25.60
2017,08,22,15,00,25.60
2017,08,22,15,01,25.70
2017,08,22,15,02,25.70
2017,08,22,15,03,25.80
2017,08,22,15,04,25.80
2017,08,22,15,05,25.90
2017,08,22,15,06,25.90
2017,08,22,15,07,26.00
2017,08,22,15,08,26.10
2017,08,22,15,09,26.20
2017,08,22,15,10,26.20
2017,08,22,15,11,26.30
2017,08,22,15,12,26.40
2017,08,22,15,13,26.40
2017,08,22,15,14,26.40
2017,08,22,15,15,26.40
2017,08,22,15,16,26.40
2017,08,22,15,17,26.40
2017,08,22,15,18,26.40
2017,08,22,15,19,26.40
2017,08,22,15,20,26.50
2017,08,22,15,21,26.50
2017,08,22,15,22,26.50
2017,08,22,15,23,26.40
2017,08,22,15,24,26.50
2017,08,22,15,25,26.50
2017,08,22,15,26,26.40
2017,08,22,15,27,26.40
2017,08,22,15,28,26.40
2017,08,22,15,29,26.50
2017,08,22,15,30,26.60
2017,08,22,15,31,26.60
2017,08,22,15,32,26.60
2017,08,22,15,33,26.60
2017,08,22,15,34,26.60
2017,08,22,15,35,26.60
2017,08,22,15,36,26.60
2017,08,22,15,37,26.60
2017,08,22,15,38,26.60
2017,08,22,15,39,26.60
2017,08,22,15,40,26.60
2017,08,22,15,41,26.60
2017,08,22,15,42,26.50
2017,08,22,15,43,26.40
2017,08,22,15,44,26.30
2017,08,22,15,45,26.20
2017,08,22,15,46,26.10
2017,08,22,15,47,26.00
2017,08,22,15,48,25.90
2017,08,22,15,49,25.80
2017,08,22,15,50,25.60
2017,08,22,15,51,25.50
2017,08,22,15,52,25.30
2017,08,22,15,53,25.20
2017,08,22,15,54,25.00
2017,08,22,15,55,24.90
2017,08,22,15,56,24.80
2017,08,22,15,57,24.70
2017,08,22,15,58,24.60
2017,08,22,15,59,24.60
2017,08,22,16,00,24.50
2017,08,22,16,01,24.40
2017,08,22,16,02,24.40
2017,08,22,16,03,24.30
2017,08,22,16,04,24.30
2017,08,22,16,05,24.30
2017,08,22,16,06,24.20
2017,08,22,16,07,24.20
2017,08,22,16,08,24.20
2017,08,22,16,09,24.20
2017,08,22,16,10,24.20
2017,08,22,16,11,24.20
2017,08,22,16,12,24.20
2017,08,22,16,13,24.20
2017,08,22,16,14,24.10
2017,08,22,16,15,24.10
2017,08,22,16,16,24.10
2017,08,22,16,17,24.10
2017,08,22,16,18,24.10
2017,08,22,16,19,24.10
2017,08,22,16,20,24.10
2017,08,22,16,21,24.10
2017,08,22,16,22,24.20
2017,08,22,16,23,24.20
2017,08,22,16,24,24.20
2017,08,22,16,25,24.20
2017,08,22,16,26,24.20
2017,08,22,16,27,24.20
2017,08,22,16,28,24.20
2017,08,22,16,29,24.20
2017,08,22,16,30,24.10
2017,08,22,16,31,24.10
2017,08,22,16,32,24.00
2017,08,22,16,33,23.90
2017,08,22,16,34,23.70
2017,08,22,16,35,23.60
2017,08,22,16,36,23.40
2017,08,22,16,37,23.30
2017,08,22,16,38,23.10
2017,08,22,16,39,23.00
2017,08,22,16,40,23.00
2017,08,22,16,41,22.80
2017,08,22,16,42,22.70
2017,08,22,16,43,22.60
2017,08,22,16,44,22.50
2017,08,22,16,45,22.50
2017,08,22,16,46,22.40
2017,08,22,16,47,22.40
2017,08,22,16,48,22.30
2017,08,22,16,49,22.30
2017,08,22,16,50,22.30
2017,08,22,16,51,22.20
2017,08,22,16,52,22.20
2017,08,22,16,53,22.10
2017,08,22,16,54,22.10
2017,08,22,16,55,22.10
2017,08,22,16,56,22.00
2017,08,22,16,57,21.90
2017,08,22,16,58,21.80
2017,08,22,16,59,21.60
2017,08,22,17,00,21.50
2017,08,22,17,01,21.30
2017,08,22,17,02,21.20
2017,08,22,17,03,21.10
2017,08,22,17,04,20.90
2017,08,22,17,05,20.80
2017,08,22,17,06,20.70
2017,08,22,17,07,20.60
2017,08,22,17,08,20.60
2017,08,22,17,09,20.60
2017,08,22,17,10,20.60
2017,08,22,17,11,20.60
2017,08,22,17,12,20.70
2017,08,22,17,13,20.70
2017,08,22,17,14,20.80
2017,08,22,17,15,20.80
2017,08,22,17,16,20.80
2017,08,22,17,17,20.90
2017,08,22,17,18,21.00
2017,08,22,17,19,21.10